Year,Month,Day,Hour,Minute,Value (Times are PST for temperature in C)
2010,11,24,00,00,-9.90
2010,11,24,00,01,-9.90
2010,11,24,00,02,-9.90
2010,11,24,00,03,-9.90
2010,11,24,00,04,-9.90
2010,11,24,00,05,-9.80
2010,11,24,00,06,-9.80
2010,11,24,00,07,-9.80
2010,11,24,00,08,-9.80
2010,11,24,00,09,-9.80
2010,11,24,00,10,-9.80
2010,11,24,00,11,-9.70
2010,11,24,00,12,-9.70
2010,11,24,00,13,-9.70
2010,11,24,00,14,-9.70
2010,11,24,00,15,-9.70
2010,11,24,00,16,-9.70
2010,11,24,00,17,-9.70
2010,11,24,00,18,-9.60
2010,11,24,00,19,-9.60
2010,11,24,00,20,-9.60
2010,11,24,00,21,-9.60
2010,11,24,00,22,-9.60
2010,11,24,00,23,-9.60
2010,11,24,00,24,-9.50
2010,11,24,00,25,-9.50
2010,11,24,00,26,-9.50
2010,11,24,00,27,-9.40
2010,11,24,00,28,-9.40
2010,11,24,00,29,-9.40
2010,11,24,00,30,-9.40
2010,11,24,00,31,-9.40
2010,11,24,00,32,-9.40
2010,11,24,00,33,-9.30
2010,11,24,00,34,-9.30
2010,11,24,00,35,-9.30
2010,11,24,00,36,-9.30
2010,11,24,00,37,-9.30
2010,11,24,00,38,-9.30
2010,11,24,00,39,-9.30
2010,11,24,00,40,-9.20
2010,11,24,00,41,-9.20
2010,11,24,00,42,-9.20
2010,11,24,00,43,-9.20
2010,11,24,00,44,-9.20
2010,11,24,00,45,-9.20
2010,11,24,00,46,-9.20
2010,11,24,00,47,-9.10
2010,11,24,00,48,-9.10
2010,11,24,00,49,-9.10
2010,11,24,00,50,-9.10
2010,11,24,00,51,-9.10
2010,11,24,00,52,-9.10
2010,11,24,00,53,-9.00
2010,11,24,00,54,-9.00
2010,11,24,00,55,-9.00
2010,11,24,00,56,-9.00
2010,11,24,00,57,-8.90
2010,11,24,00,58,-8.90
2010,11,24,00,59,-8.90
2010,11,24,01,00,-8.90
2010,11,24,01,01,-8.90
2010,11,24,01,02,-8.90
2010,11,24,01,03,-8.80
2010,11,24,01,04,-8.80
2010,11,24,01,05,-8.80
2010,11,24,01,06,-8.80
2010,11,24,01,07,-8.80
2010,11,24,01,08,-8.80
2010,11,24,01,09,-8.80
2010,11,24,01,10,-8.80
2010,11,24,01,11,-8.80
2010,11,24,01,12,-8.80
2010,11,24,01,13,-8.70
2010,11,24,01,14,-8.70
2010,11,24,01,15,-8.70
2010,11,24,01,16,-8.70
2010,11,24,01,17,-8.70
2010,11,24,01,18,-8.70
2010,11,24,01,19,-8.70
2010,11,24,01,20,-8.60
2010,11,24,01,21,-8.60
2010,11,24,01,22,-8.60
2010,11,24,01,23,-8.60
2010,11,24,01,24,-8.60
2010,11,24,01,25,-8.60
2010,11,24,01,26,-8.50
2010,11,24,01,27,-8.50
2010,11,24,01,28,-8.50
2010,11,24,01,29,-8.50
2010,11,24,01,30,-8.50
2010,11,24,01,31,-8.40
2010,11,24,01,32,-8.40
2010,11,24,01,33,-8.40
2010,11,24,01,34,-8.40
2010,11,24,01,35,-8.40
2010,11,24,01,36,-8.40
2010,11,24,01,37,-8.40
2010,11,24,01,38,-8.40
2010,11,24,01,39,-8.40
2010,11,24,01,40,-8.40
2010,11,24,01,41,-8.30
2010,11,24,01,42,-8.30
2010,11,24,01,43,-8.30
2010,11,24,01,44,-8.30
2010,11,24,01,45,-8.30
2010,11,24,01,46,-8.30
2010,11,24,01,47,-8.30
2010,11,24,01,48,-8.30
2010,11,24,01,49,-8.30
2010,11,24,01,50,-8.30
2010,11,24,01,51,-8.30
2010,11,24,01,52,-8.20
2010,11,24,01,53,-8.20
2010,11,24,01,54,-8.20
2010,11,24,01,55,-8.20
2010,11,24,01,56,-8.20
2010,11,24,01,57,-8.20
2010,11,24,01,58,-8.20
2010,11,24,01,59,-8.10
2010,11,24,02,00,-8.10
2010,11,24,02,01,-8.10
2010,11,24,02,02,-8.10
2010,11,24,02,03,-8.10
2010,11,24,02,04,-8.10
2010,11,24,02,05,-8.10
2010,11,24,02,06,-8.10
2010,11,24,02,07,-8.00
2010,11,24,02,08,-8.00
2010,11,24,02,09,-8.00
2010,11,24,02,10,-8.00
2010,11,24,02,11,-8.00
2010,11,24,02,12,-8.00
2010,11,24,02,13,-8.00
2010,11,24,02,14,-7.90
2010,11,24,02,15,-7.90
2010,11,24,02,16,-7.90
2010,11,24,02,17,-7.90
2010,11,24,02,18,-7.90
2010,11,24,02,19,-7.90
2010,11,24,02,20,-7.90
2010,11,24,02,21,-7.80
2010,11,24,02,22,-7.80
2010,11,24,02,23,-7.80
2010,11,24,02,24,-7.80
2010,11,24,02,25,-7.80
2010,11,24,02,26,-7.80
2010,11,24,02,27,-7.80
2010,11,24,02,28,-7.80
2010,11,24,02,29,-7.80
2010,11,24,02,30,-7.80
2010,11,24,02,31,-7.80
2010,11,24,02,32,-7.80
2010,11,24,02,33,-7.70
2010,11,24,02,34,-7.70
2010,11,24,02,35,-7.70
2010,11,24,02,36,-7.70
2010,11,24,02,37,-7.70
2010,11,24,02,38,-7.70
2010,11,24,02,39,-7.70
2010,11,24,02,40,-7.70
2010,11,24,02,41,-7.70
2010,11,24,02,42,-7.70
2010,11,24,02,43,-7.60
2010,11,24,02,44,-7.60
2010,11,24,02,45,-7.60
2010,11,24,02,46,-7.60
2010,11,24,02,47,-7.60
2010,11,24,02,48,-7.60
2010,11,24,02,49,-7.60
2010,11,24,02,50,-7.60
2010,11,24,02,51,-7.60
2010,11,24,02,52,-7.50
2010,11,24,02,53,-7.50
2010,11,24,02,54,-7.50
2010,11,24,02,55,-7.50
2010,11,24,02,56,-7.50
2010,11,24,02,57,-7.50
2010,11,24,02,58,-7.50
2010,11,24,02,59,-7.50
2010,11,24,03,00,-7.40
2010,11,24,03,01,-7.40
2010,11,24,03,02,-7.40
2010,11,24,03,03,-7.40
2010,11,24,03,04,-7.40
2010,11,24,03,05,-7.40
2010,11,24,03,06,-7.40
2010,11,24,03,07,-7.40
2010,11,24,03,08,-7.40
2010,11,24,03,09,-7.30
2010,11,24,03,10,-7.30
2010,11,24,03,11,-7.30
2010,11,24,03,12,-7.30
2010,11,24,03,13,-7.30
2010,11,24,03,14,-7.30
2010,11,24,03,15,-7.30
2010,11,24,03,16,-7.30
2010,11,24,03,17,-7.30
2010,11,24,03,18,-7.30
2010,11,24,03,19,-7.30
2010,11,24,03,20,-7.30
2010,11,24,03,21,-7.30
2010,11,24,03,22,-7.30
2010,11,24,03,23,-7.20
2010,11,24,03,24,-7.20
2010,11,24,03,25,-7.20
2010,11,24,03,26,-7.20
2010,11,24,03,27,-7.20
2010,11,24,03,28,-7.20
2010,11,24,03,29,-7.20
2010,11,24,03,30,-7.20
2010,11,24,03,31,-7.10
2010,11,24,03,32,-7.10
2010,11,24,03,33,-7.10
2010,11,24,03,34,-7.10
2010,11,24,03,35,-7.10
2010,11,24,03,36,-7.10
2010,11,24,03,37,-7.10
2010,11,24,03,38,-7.00
2010,11,24,03,39,-7.00
2010,11,24,03,40,-7.00
2010,11,24,03,41,-7.00
2010,11,24,03,42,-6.90
2010,11,24,03,43,-6.90
2010,11,24,03,44,-6.90
2010,11,24,03,45,-6.90
2010,11,24,03,46,-6.90
2010,11,24,03,47,-6.80
2010,11,24,03,48,-6.80
2010,11,24,03,49,-6.80
2010,11,24,03,50,-6.80
2010,11,24,03,51,-6.80
2010,11,24,03,52,-6.80
2010,11,24,03,53,-6.80
2010,11,24,03,54,-6.80
2010,11,24,03,55,-6.80
2010,11,24,03,56,-6.80
2010,11,24,03,57,-6.80
2010,11,24,03,58,-6.80
2010,11,24,03,59,-6.80
2010,11,24,04,00,-6.70
2010,11,24,04,01,-6.70
2010,11,24,04,02,-6.70
2010,11,24,04,03,-6.70
2010,11,24,04,04,-6.70
2010,11,24,04,05,-6.70
2010,11,24,04,06,-6.70
2010,11,24,04,07,-6.60
2010,11,24,04,08,-6.60
2010,11,24,04,09,-6.60
2010,11,24,04,10,-6.60
2010,11,24,04,11,-6.60
2010,11,24,04,12,-6.60
2010,11,24,04,13,-6.60
2010,11,24,04,14,-6.60
2010,11,24,04,15,-6.60
2010,11,24,04,16,-6.60
2010,11,24,04,17,-6.60
2010,11,24,04,18,-6.60
2010,11,24,04,19,-6.60
2010,11,24,04,20,-6.60
2010,11,24,04,21,-6.60
2010,11,24,04,22,-6.60
2010,11,24,04,23,-6.50
2010,11,24,04,24,-6.50
2010,11,24,04,25,-6.50
2010,11,24,04,26,-6.40
2010,11,24,04,27,-6.40
2010,11,24,04,28,-6.40
2010,11,24,04,29,-6.40
2010,11,24,04,30,-6.40
2010,11,24,04,31,-6.30
2010,11,24,04,32,-6.30
2010,11,24,04,33,-6.30
2010,11,24,04,34,-6.30
2010,11,24,04,35,-6.30
2010,11,24,04,36,-6.30
2010,11,24,04,37,-6.30
2010,11,24,04,38,-6.30
2010,11,24,04,39,-6.30
2010,11,24,04,40,-6.30
2010,11,24,04,41,-6.30
2010,11,24,04,42,-6.30
2010,11,24,04,43,-6.30
2010,11,24,04,44,-6.30
2010,11,24,04,45,-6.30
2010,11,24,04,46,-6.30
2010,11,24,04,47,-6.20
2010,11,24,04,48,-6.20
2010,11,24,04,49,-6.20
2010,11,24,04,50,-6.20
2010,11,24,04,51,-6.20
2010,11,24,04,52,-6.20
2010,11,24,04,53,-6.20
2010,11,24,04,54,-6.20
2010,11,24,04,55,-6.20
2010,11,24,04,56,-6.20
2010,11,24,04,57,-6.20
2010,11,24,04,58,-6.20
2010,11,24,04,59,-6.20
2010,11,24,05,00,-6.20
2010,11,24,05,01,-6.20
2010,11,24,05,02,-6.20
2010,11,24,05,03,-6.20
2010,11,24,05,04,-6.20
2010,11,24,05,05,-6.20
2010,11,24,05,06,-6.20
2010,11,24,05,07,-6.20
2010,11,24,05,08,-6.10
2010,11,24,05,09,-6.10
2010,11,24,05,10,-6.10
2010,11,24,05,11,-6.10
2010,11,24,05,12,-6.10
2010,11,24,05,13,-6.10
2010,11,24,05,14,-6.10
2010,11,24,05,15,-6.10
2010,11,24,05,16,-6.10
2010,11,24,05,17,-6.10
2010,11,24,05,18,-6.10
2010,11,24,05,19,-6.10
2010,11,24,05,20,-6.10
2010,11,24,05,21,-6.10
2010,11,24,05,22,-6.10
2010,11,24,05,23,-6.10
2010,11,24,05,24,-6.10
2010,11,24,05,25,-6.10
2010,11,24,05,26,-6.10
2010,11,24,05,27,-6.10
2010,11,24,05,28,-6.10
2010,11,24,05,29,-6.10
2010,11,24,05,30,-6.10
2010,11,24,05,31,-6.00
2010,11,24,05,32,-6.00
2010,11,24,05,33,-6.00
2010,11,24,05,34,-6.00
2010,11,24,05,35,-6.00
2010,11,24,05,36,-6.00
2010,11,24,05,37,-6.00
2010,11,24,05,38,-6.00
2010,11,24,05,39,-5.90
2010,11,24,05,40,-5.90
2010,11,24,05,41,-5.90
2010,11,24,05,42,-5.90
2010,11,24,05,43,-5.90
2010,11,24,05,44,-5.90
2010,11,24,05,45,-5.90
2010,11,24,05,46,-5.90
2010,11,24,05,47,-5.90
2010,11,24,05,48,-5.90
2010,11,24,05,49,-5.90
2010,11,24,05,50,-5.90
2010,11,24,05,51,-5.90
2010,11,24,05,52,-5.90
2010,11,24,05,53,-5.90
2010,11,24,05,54,-5.90
2010,11,24,05,55,-5.90
2010,11,24,05,56,-5.90
2010,11,24,05,57,-5.80
2010,11,24,05,58,-5.90
2010,11,24,05,59,-5.90
2010,11,24,06,00,-5.80
2010,11,24,06,01,-5.80
2010,11,24,06,02,-5.80
2010,11,24,06,03,-5.80
2010,11,24,06,04,-5.80
2010,11,24,06,05,-5.80
2010,11,24,06,06,-5.80
2010,11,24,06,07,-5.80
2010,11,24,06,08,-5.80
2010,11,24,06,09,-5.80
2010,11,24,06,10,-5.80
2010,11,24,06,11,-5.80
2010,11,24,06,12,-5.80
2010,11,24,06,13,-5.80
2010,11,24,06,14,-5.80
2010,11,24,06,15,-5.80
2010,11,24,06,16,-5.80
2010,11,24,06,17,-5.80
2010,11,24,06,18,-5.80
2010,11,24,06,19,-5.80
2010,11,24,06,20,-5.80
2010,11,24,06,21,-5.80
2010,11,24,06,22,-5.80
2010,11,24,06,23,-5.80
2010,11,24,06,24,-5.80
2010,11,24,06,25,-5.80
2010,11,24,06,26,-5.80
2010,11,24,06,27,-5.80
2010,11,24,06,28,-5.80
2010,11,24,06,29,-5.80
2010,11,24,06,30,-5.80
2010,11,24,06,31,-5.80
2010,11,24,06,32,-5.80
2010,11,24,06,33,-5.80
2010,11,24,06,34,-5.80
2010,11,24,06,35,-5.80
2010,11,24,06,36,-5.80
2010,11,24,06,37,-5.80
2010,11,24,06,38,-5.80
2010,11,24,06,39,-5.80
2010,11,24,06,40,-5.80
2010,11,24,06,41,-5.80
2010,11,24,06,42,-5.80
2010,11,24,06,43,-5.80
2010,11,24,06,44,-5.80
2010,11,24,06,45,-5.80
2010,11,24,06,46,-5.80
2010,11,24,06,47,-5.80
2010,11,24,06,48,-5.80
2010,11,24,06,49,-5.80
2010,11,24,06,50,-5.80
2010,11,24,06,51,-5.80
2010,11,24,06,52,-5.80
2010,11,24,06,53,-5.80
2010,11,24,06,54,-5.80
2010,11,24,06,55,-5.80
2010,11,24,06,56,-5.80
2010,11,24,06,57,-5.80
2010,11,24,06,58,-5.80
2010,11,24,06,59,-5.80
2010,11,24,07,00,-5.80
2010,11,24,07,01,-5.80
2010,11,24,07,02,-5.80
2010,11,24,07,03,-5.80
2010,11,24,07,04,-5.80
2010,11,24,07,05,-5.80
2010,11,24,07,06,-5.80
2010,11,24,07,07,-5.80
2010,11,24,07,08,-5.80
2010,11,24,07,09,-5.80
2010,11,24,07,10,-5.80
2010,11,24,07,11,-5.80
2010,11,24,07,12,-5.80
2010,11,24,07,13,-5.80
2010,11,24,07,14,-5.80
2010,11,24,07,15,-5.80
2010,11,24,07,16,-5.80
2010,11,24,07,17,-5.80
2010,11,24,07,18,-5.80
2010,11,24,07,19,-5.80
2010,11,24,07,20,-5.80
2010,11,24,07,21,-5.80
2010,11,24,07,22,-5.80
2010,11,24,07,23,-5.80
2010,11,24,07,24,-5.70
2010,11,24,07,25,-5.80
2010,11,24,07,26,-5.80
2010,11,24,07,27,-5.70
2010,11,24,07,28,-5.70
2010,11,24,07,29,-5.70
2010,11,24,07,30,-5.70
2010,11,24,07,31,-5.70
2010,11,24,07,32,-5.70
2010,11,24,07,33,-5.70
2010,11,24,07,34,-5.70
2010,11,24,07,35,-5.70
2010,11,24,07,36,-5.70
2010,11,24,07,37,-5.70
2010,11,24,07,38,-5.70
2010,11,24,07,39,-5.70
2010,11,24,07,40,-5.70
2010,11,24,07,41,-5.70
2010,11,24,07,42,-5.70
2010,11,24,07,43,-5.70
2010,11,24,07,44,-5.70
2010,11,24,07,45,-5.70
2010,11,24,07,46,-5.70
2010,11,24,07,47,-5.70
2010,11,24,07,48,-5.70
2010,11,24,07,49,-5.70
2010,11,24,07,50,-5.70
2010,11,24,07,51,-5.70
2010,11,24,07,52,-5.70
2010,11,24,07,53,-5.70
2010,11,24,07,54,-5.70
2010,11,24,07,55,-5.70
2010,11,24,07,56,-5.70
2010,11,24,07,57,-5.60
2010,11,24,07,58,-5.60
2010,11,24,07,59,-5.60
2010,11,24,08,00,-5.60
2010,11,24,08,01,-5.60
2010,11,24,08,02,-5.60
2010,11,24,08,03,-5.60
2010,11,24,08,04,-5.60
2010,11,24,08,05,-5.60
2010,11,24,08,06,-5.60
2010,11,24,08,07,-5.60
2010,11,24,08,08,-5.60
2010,11,24,08,09,-5.60
2010,11,24,08,10,-5.50
2010,11,24,08,11,-5.50
2010,11,24,08,12,-5.50
2010,11,24,08,13,-5.50
2010,11,24,08,14,-5.50
2010,11,24,08,15,-5.50
2010,11,24,08,16,-5.50
2010,11,24,08,17,-5.40
2010,11,24,08,18,-5.40
2010,11,24,08,19,-5.40
2010,11,24,08,20,-5.40
2010,11,24,08,21,-5.40
2010,11,24,08,22,-5.40
2010,11,24,08,23,-5.40
2010,11,24,08,24,-5.40
2010,11,24,08,25,-5.40
2010,11,24,08,26,-5.40
2010,11,24,08,27,-5.30
2010,11,24,08,28,-5.30
2010,11,24,08,29,-5.30
2010,11,24,08,30,-5.30
2010,11,24,08,31,-5.30
2010,11,24,08,32,-5.30
2010,11,24,08,33,-5.30
2010,11,24,08,34,-5.30
2010,11,24,08,35,-5.30
2010,11,24,08,36,-5.30
2010,11,24,08,37,-5.30
2010,11,24,08,38,-5.30
2010,11,24,08,39,-5.20
2010,11,24,08,40,-5.20
2010,11,24,08,41,-5.20
2010,11,24,08,42,-5.20
2010,11,24,08,43,-5.20
2010,11,24,08,44,-5.20
2010,11,24,08,45,-5.20
2010,11,24,08,46,-5.20
2010,11,24,08,47,-5.20
2010,11,24,08,48,-5.20
2010,11,24,08,49,-5.20
2010,11,24,08,50,-5.20
2010,11,24,08,51,-5.10
2010,11,24,08,52,-5.10
2010,11,24,08,53,-5.10
2010,11,24,08,54,-5.10
2010,11,24,08,55,-5.10
2010,11,24,08,56,-5.10
2010,11,24,08,57,-5.10
2010,11,24,08,58,-5.10
2010,11,24,08,59,-5.10
2010,11,24,09,00,-5.00
2010,11,24,09,01,-5.00
2010,11,24,09,02,-5.00
2010,11,24,09,03,-5.00
2010,11,24,09,04,-4.90
2010,11,24,09,05,-4.90
2010,11,24,09,06,-4.90
2010,11,24,09,07,-4.90
2010,11,24,09,08,-4.90
2010,11,24,09,09,-4.80
2010,11,24,09,10,-4.80
2010,11,24,09,11,-4.80
2010,11,24,09,12,-4.80
2010,11,24,09,13,-4.80
2010,11,24,09,14,-4.80
2010,11,24,09,15,-4.80
2010,11,24,09,16,-4.80
2010,11,24,09,17,-4.70
2010,11,24,09,18,-4.70
2010,11,24,09,19,-4.70
2010,11,24,09,20,-4.70
2010,11,24,09,21,-4.70
2010,11,24,09,22,-4.70
2010,11,24,09,23,-4.70
2010,11,24,09,24,-4.70
2010,11,24,09,25,-4.70
2010,11,24,09,26,-4.70
2010,11,24,09,27,-4.70
2010,11,24,09,28,-4.70
2010,11,24,09,29,-4.70
2010,11,24,09,30,-4.70
2010,11,24,09,31,-4.70
2010,11,24,09,32,-4.70
2010,11,24,09,33,-4.70
2010,11,24,09,34,-4.70
2010,11,24,09,35,-4.70
2010,11,24,09,36,-4.70
2010,11,24,09,37,-4.70
2010,11,24,09,38,-4.70
2010,11,24,09,39,-4.70
2010,11,24,09,40,-4.70
2010,11,24,09,41,-4.60
2010,11,24,09,42,-4.60
2010,11,24,09,43,-4.60
2010,11,24,09,44,-4.60
2010,11,24,09,45,-4.60
2010,11,24,09,46,-4.60
2010,11,24,09,47,-4.60
2010,11,24,09,48,-4.60
2010,11,24,09,49,-4.60
2010,11,24,09,50,-4.60
2010,11,24,09,51,-4.60
2010,11,24,09,52,-4.60
2010,11,24,09,53,-4.60
2010,11,24,09,54,-4.60
2010,11,24,09,55,-4.60
2010,11,24,09,56,-4.60
2010,11,24,09,57,-4.60
2010,11,24,09,58,-4.60
2010,11,24,09,59,-4.60
2010,11,24,10,00,-4.60
2010,11,24,10,01,-4.60
2010,11,24,10,02,-4.60
2010,11,24,10,03,-4.60
2010,11,24,10,04,-4.60
2010,11,24,10,05,-4.60
2010,11,24,10,06,-4.60
2010,11,24,10,07,-4.60
2010,11,24,10,08,-4.60
2010,11,24,10,09,-4.60
2010,11,24,10,10,-4.60
2010,11,24,10,11,-4.60
2010,11,24,10,12,-4.60
2010,11,24,10,13,-4.60
2010,11,24,10,14,-4.60
2010,11,24,10,15,-4.60
2010,11,24,10,16,-4.60
2010,11,24,10,17,-4.60
2010,11,24,10,18,-4.60
2010,11,24,10,19,-4.60
2010,11,24,10,20,-4.60
2010,11,24,10,21,-4.60
2010,11,24,10,22,-4.60
2010,11,24,10,23,-4.60
2010,11,24,10,24,-4.50
2010,11,24,10,25,-4.50
2010,11,24,10,26,-4.50
2010,11,24,10,27,-4.50
2010,11,24,10,28,-4.50
2010,11,24,10,29,-4.50
2010,11,24,10,30,-4.50
2010,11,24,10,31,-4.50
2010,11,24,10,32,-4.50
2010,11,24,10,33,-4.50
2010,11,24,10,34,-4.50
2010,11,24,10,35,-4.50
2010,11,24,10,36,-4.50
2010,11,24,10,37,-4.50
2010,11,24,10,38,-4.50
2010,11,24,10,39,-4.50
2010,11,24,10,40,-4.50
2010,11,24,10,41,-4.40
2010,11,24,10,42,-4.40
2010,11,24,10,43,-4.40
2010,11,24,10,44,-4.40
2010,11,24,10,45,-4.40
2010,11,24,10,46,-4.40
2010,11,24,10,47,-4.40
2010,11,24,10,48,-4.40
2010,11,24,10,49,-4.40
2010,11,24,10,50,-4.40
2010,11,24,10,51,-4.40
2010,11,24,10,52,-4.40
2010,11,24,10,53,-4.40
2010,11,24,10,54,-4.40
2010,11,24,10,55,-4.30
2010,11,24,10,56,-4.30
2010,11,24,10,57,-4.30
2010,11,24,10,58,-4.30
2010,11,24,10,59,-4.30
2010,11,24,11,00,-4.30
2010,11,24,11,01,-4.30
2010,11,24,11,02,-4.30
2010,11,24,11,03,-4.30
2010,11,24,11,04,-4.30
2010,11,24,11,05,-4.30
2010,11,24,11,06,-4.20
2010,11,24,11,07,-4.20
2010,11,24,11,08,-4.20
2010,11,24,11,09,-4.20
2010,11,24,11,10,-4.20
2010,11,24,11,11,-4.20
2010,11,24,11,12,-4.20
2010,11,24,11,13,-4.20
2010,11,24,11,14,-4.20
2010,11,24,11,15,-4.20
2010,11,24,11,16,-4.20
2010,11,24,11,17,-4.20
2010,11,24,11,18,-4.20
2010,11,24,11,19,-4.20
2010,11,24,11,20,-4.10
2010,11,24,11,21,-4.10
2010,11,24,11,22,-4.10
2010,11,24,11,23,-4.10
2010,11,24,11,24,-4.10
2010,11,24,11,25,-4.00
2010,11,24,11,26,-4.00
2010,11,24,11,27,-4.00
2010,11,24,11,28,-3.90
2010,11,24,11,29,-3.90
2010,11,24,11,30,-3.90
2010,11,24,11,31,-3.90
2010,11,24,11,32,-3.80
2010,11,24,11,33,-3.80
2010,11,24,11,34,-3.80
2010,11,24,11,35,-3.80
2010,11,24,11,36,-3.80
2010,11,24,11,37,-3.80
2010,11,24,11,38,-3.80
2010,11,24,11,39,-3.80
2010,11,24,11,40,-3.80
2010,11,24,11,41,-3.80
2010,11,24,11,42,-3.80
2010,11,24,11,43,-3.70
2010,11,24,11,44,-3.70
2010,11,24,11,45,-3.70
2010,11,24,11,46,-3.70
2010,11,24,11,47,-3.70
2010,11,24,11,48,-3.70
2010,11,24,11,49,-3.70
2010,11,24,11,50,-3.60
2010,11,24,11,51,-3.60
2010,11,24,11,52,-3.60
2010,11,24,11,53,-3.60
2010,11,24,11,54,-3.60
2010,11,24,11,55,-3.60
2010,11,24,11,56,-3.60
2010,11,24,11,57,-3.60
2010,11,24,11,58,-3.60
2010,11,24,11,59,-3.60
2010,11,24,12,00,-3.60
2010,11,24,12,01,-3.60
2010,11,24,12,02,-3.60
2010,11,24,12,03,-3.60
2010,11,24,12,04,-3.60
2010,11,24,12,05,-3.60
2010,11,24,12,06,-3.60
2010,11,24,12,07,-3.60
2010,11,24,12,08,-3.60
2010,11,24,12,09,-3.60
2010,11,24,12,10,-3.60
2010,11,24,12,11,-3.60
2010,11,24,12,12,-3.60
2010,11,24,12,13,-3.60
2010,11,24,12,14,-3.60
2010,11,24,12,15,-3.50
2010,11,24,12,16,-3.50
2010,11,24,12,17,-3.50
2010,11,24,12,18,-3.50
2010,11,24,12,19,-3.60
2010,11,24,12,20,-3.60
2010,11,24,12,21,-3.60
2010,11,24,12,22,-3.60
2010,11,24,12,23,-3.60
2010,11,24,12,24,-3.50
2010,11,24,12,25,-3.50
2010,11,24,12,26,-3.50
2010,11,24,12,27,-3.50
2010,11,24,12,28,-3.50
2010,11,24,12,29,-3.50
2010,11,24,12,30,-3.50
2010,11,24,12,31,-3.50
2010,11,24,12,32,-3.50
2010,11,24,12,33,-3.50
2010,11,24,12,34,-3.40
2010,11,24,12,35,-3.40
2010,11,24,12,36,-3.40
2010,11,24,12,37,-3.40
2010,11,24,12,38,-3.40
2010,11,24,12,39,-3.40
2010,11,24,12,40,-3.40
2010,11,24,12,41,-3.40
2010,11,24,12,42,-3.40
2010,11,24,12,43,-3.40
2010,11,24,12,44,-3.40
2010,11,24,12,45,-3.40
2010,11,24,12,46,-3.40
2010,11,24,12,47,-3.40
2010,11,24,12,48,-3.40
2010,11,24,12,49,-3.30
2010,11,24,12,50,-3.30
2010,11,24,12,51,-3.30
2010,11,24,12,52,-3.30
2010,11,24,12,53,-3.30
2010,11,24,12,54,-3.30
2010,11,24,12,55,-3.20
2010,11,24,12,56,-3.20
2010,11,24,12,57,-3.20
2010,11,24,12,58,-3.20
2010,11,24,12,59,-3.20
2010,11,24,13,00,-3.20
2010,11,24,13,01,-3.20
2010,11,24,13,02,-3.20
2010,11,24,13,03,-3.10
2010,11,24,13,04,-3.10
2010,11,24,13,05,-3.10
2010,11,24,13,06,-3.10
2010,11,24,13,07,-3.10
2010,11,24,13,08,-3.10
2010,11,24,13,09,-3.10
2010,11,24,13,10,-3.10
2010,11,24,13,11,-3.10
2010,11,24,13,12,-3.10
2010,11,24,13,13,-3.10
2010,11,24,13,14,-3.20
2010,11,24,13,15,-3.20
2010,11,24,13,16,-3.20
2010,11,24,13,17,-3.20
2010,11,24,13,18,-3.20
2010,11,24,13,19,-3.20
2010,11,24,13,20,-3.20
2010,11,24,13,21,-3.20
2010,11,24,13,22,-3.20
2010,11,24,13,23,-3.20
2010,11,24,13,24,-3.20
2010,11,24,13,25,-3.30
2010,11,24,13,26,-3.30
2010,11,24,13,27,-3.30
2010,11,24,13,28,-3.30
2010,11,24,13,29,-3.30
2010,11,24,13,30,-3.30
2010,11,24,13,31,-3.30
2010,11,24,13,32,-3.30
2010,11,24,13,33,-3.20
2010,11,24,13,34,-3.20
2010,11,24,13,35,-3.20
2010,11,24,13,36,-3.20
2010,11,24,13,37,-3.20
2010,11,24,13,38,-3.20
2010,11,24,13,39,-3.20
2010,11,24,13,40,-3.20
2010,11,24,13,41,-3.20
2010,11,24,13,42,-3.20
2010,11,24,13,43,-3.20
2010,11,24,13,44,-3.20
2010,11,24,13,45,-3.20
2010,11,24,13,46,-3.20
2010,11,24,13,47,-3.20
2010,11,24,13,48,-3.20
2010,11,24,13,49,-3.20
2010,11,24,13,50,-3.20
2010,11,24,13,51,-3.20
2010,11,24,13,52,-3.20
2010,11,24,13,53,-3.20
2010,11,24,13,54,-3.20
2010,11,24,13,55,-3.20
2010,11,24,13,56,-3.20
2010,11,24,13,57,-3.20
2010,11,24,13,58,-3.20
2010,11,24,13,59,-3.20
2010,11,24,14,00,-3.20
2010,11,24,14,01,-3.20
2010,11,24,14,02,-3.20
2010,11,24,14,03,-3.10
2010,11,24,14,04,-3.10
2010,11,24,14,05,-3.10
2010,11,24,14,06,-3.10
2010,11,24,14,07,-3.10
2010,11,24,14,08,-3.10
2010,11,24,14,09,-3.10
2010,11,24,14,10,-3.10
2010,11,24,14,11,-3.10
2010,11,24,14,12,-3.10
2010,11,24,14,13,-3.10
2010,11,24,14,14,-3.10
2010,11,24,14,15,-3.10
2010,11,24,14,16,-3.10
2010,11,24,14,17,-3.10
2010,11,24,14,18,-3.10
2010,11,24,14,19,-3.10
2010,11,24,14,20,-3.10
2010,11,24,14,21,-3.10
2010,11,24,14,22,-3.10
2010,11,24,14,23,-3.00
2010,11,24,14,24,-3.00
2010,11,24,14,25,-3.00
2010,11,24,14,26,-3.00
2010,11,24,14,27,-3.00
2010,11,24,14,28,-3.00
2010,11,24,14,29,-2.90
2010,11,24,14,30,-2.90
2010,11,24,14,31,-2.90
2010,11,24,14,32,-2.90
2010,11,24,14,33,-2.90
2010,11,24,14,34,-2.90
2010,11,24,14,35,-3.00
2010,11,24,14,36,-3.00
2010,11,24,14,37,-3.00
2010,11,24,14,38,-3.00
2010,11,24,14,39,-3.00
2010,11,24,14,40,-3.00
2010,11,24,14,41,-3.00
2010,11,24,14,42,-3.00
2010,11,24,14,43,-3.00
2010,11,24,14,44,-3.00
2010,11,24,14,45,-3.00
2010,11,24,14,46,-3.00
2010,11,24,14,47,-3.00
2010,11,24,14,48,-3.00
2010,11,24,14,49,-3.00
2010,11,24,14,50,-3.00
2010,11,24,14,51,-3.00
2010,11,24,14,52,-3.00
2010,11,24,14,53,-3.00
2010,11,24,14,54,-3.00
2010,11,24,14,55,-3.00
2010,11,24,14,56,-3.10
2010,11,24,14,57,-3.10
2010,11,24,14,58,-3.10
2010,11,24,14,59,-3.10
2010,11,24,15,00,-3.00
2010,11,24,15,01,-3.00
2010,11,24,15,02,-3.10
2010,11,24,15,03,-3.00
2010,11,24,15,04,-3.00
2010,11,24,15,05,-3.10
2010,11,24,15,06,-3.10
2010,11,24,15,07,-3.10
2010,11,24,15,08,-3.10
2010,11,24,15,09,-3.10
2010,11,24,15,10,-3.10
2010,11,24,15,11,-3.10
2010,11,24,15,12,-3.20
2010,11,24,15,13,-3.20
2010,11,24,15,14,-3.20
2010,11,24,15,15,-3.20
2010,11,24,15,16,-3.20
2010,11,24,15,17,-3.20
2010,11,24,15,18,-3.20
2010,11,24,15,19,-3.20
2010,11,24,15,20,-3.20
2010,11,24,15,21,-3.20
2010,11,24,15,22,-3.20
2010,11,24,15,23,-3.20
2010,11,24,15,24,-3.20
2010,11,24,15,25,-3.20
2010,11,24,15,26,-3.20
2010,11,24,15,27,-3.20
2010,11,24,15,28,-3.20
2010,11,24,15,29,-3.20
2010,11,24,15,30,-3.30
2010,11,24,15,31,-3.30
2010,11,24,15,32,-3.30
2010,11,24,15,33,-3.30
2010,11,24,15,34,-3.30
2010,11,24,15,35,-3.30
2010,11,24,15,36,-3.30
2010,11,24,15,37,-3.30
2010,11,24,15,38,-3.30
2010,11,24,15,39,-3.30
2010,11,24,15,40,-3.30
2010,11,24,15,41,-3.30
2010,11,24,15,42,-3.30
2010,11,24,15,43,-3.30
2010,11,24,15,44,-3.40
2010,11,24,15,45,-3.40
2010,11,24,15,46,-3.40
2010,11,24,15,47,-3.40
2010,11,24,15,48,-3.40
2010,11,24,15,49,-3.40
2010,11,24,15,50,-3.40
2010,11,24,15,51,-3.40
2010,11,24,15,52,-3.40
2010,11,24,15,53,-3.40
2010,11,24,15,54,-3.40
2010,11,24,15,55,-3.40
2010,11,24,15,56,-3.40
2010,11,24,15,57,-3.40
2010,11,24,15,58,-3.40
2010,11,24,15,59,-3.40
2010,11,24,16,00,-3.40
2010,11,24,16,01,-3.40
2010,11,24,16,02,-3.40
2010,11,24,16,03,-3.40
2010,11,24,16,04,-3.40
2010,11,24,16,05,-3.40
2010,11,24,16,06,-3.40
2010,11,24,16,07,-3.40
2010,11,24,16,08,-3.40
2010,11,24,16,09,-3.40
2010,11,24,16,10,-3.40
2010,11,24,16,11,-3.50
2010,11,24,16,12,-3.50
2010,11,24,16,13,-3.50
2010,11,24,16,14,-3.50
2010,11,24,16,15,-3.50
2010,11,24,16,16,-3.50
2010,11,24,16,17,-3.50
2010,11,24,16,18,-3.50
2010,11,24,16,19,-3.50
2010,11,24,16,20,-3.50
2010,11,24,16,21,-3.50
2010,11,24,16,22,-3.50
2010,11,24,16,23,-3.50
2010,11,24,16,24,-3.50
2010,11,24,16,25,-3.50
2010,11,24,16,26,-3.60
2010,11,24,16,27,-3.60
2010,11,24,16,28,-3.60
2010,11,24,16,29,-3.60
2010,11,24,16,30,-3.60
2010,11,24,16,31,-3.60
2010,11,24,16,32,-3.60
2010,11,24,16,33,-3.60
2010,11,24,16,34,-3.60
2010,11,24,16,35,-3.60
2010,11,24,16,36,-3.60
2010,11,24,16,37,-3.60
2010,11,24,16,38,-3.60
2010,11,24,16,39,-3.70
2010,11,24,16,40,-3.70
2010,11,24,16,41,-3.70
2010,11,24,16,42,-3.70
2010,11,24,16,43,-3.70
2010,11,24,16,44,-3.70
2010,11,24,16,45,-3.70
2010,11,24,16,46,-3.70
2010,11,24,16,47,-3.70
2010,11,24,16,48,-3.70
2010,11,24,16,49,-3.70
2010,11,24,16,50,-3.70
2010,11,24,16,51,-3.70
2010,11,24,16,52,-3.70
2010,11,24,16,53,-3.70
2010,11,24,16,54,-3.70
2010,11,24,16,55,-3.70
2010,11,24,16,56,-3.70
2010,11,24,16,57,-3.70
2010,11,24,16,58,-3.70
2010,11,24,16,59,-3.70
2010,11,24,17,00,-3.70
2010,11,24,17,01,-3.70
2010,11,24,17,02,-3.70
2010,11,24,17,03,-3.70
2010,11,24,17,04,-3.70
2010,11,24,17,05,-3.70
2010,11,24,17,06,-3.70
2010,11,24,17,07,-3.70
2010,11,24,17,08,-3.70
2010,11,24,17,09,-3.70
2010,11,24,17,10,-3.70
2010,11,24,17,11,-3.70
2010,11,24,17,12,-3.70
2010,11,24,17,13,-3.70
2010,11,24,17,14,-3.70
2010,11,24,17,15,-3.70
2010,11,24,17,16,-3.70
2010,11,24,17,17,-3.70
2010,11,24,17,18,-3.70
2010,11,24,17,19,-3.70